EW1845 Weather Reports


Display with metric or nautical units.
time (UTC)temp
F
wind
direction
speed
MPH
gust
MPH
rain 1hr
in
rain 24hr
in
rain mn
in
humidity
%
barometer
mb
20260903025908 65 217 0.0 0.0 0.00 0.00 0.00 70 1012.9
20260903024858 66 217 0.0 0.0 0.00 0.00 0.00 69 1013.0
20260903024503 66 217 0.0 0.0 0.00 0.00 0.00 69 1013.0
20260903023917 67 218 0.0 0.0 0.00 0.00 0.00 68 1012.9
20260903023106 68 217 0.0 1.0 0.00 0.00 0.00 67 1012.9
20260903022940 68 218 0.0 0.0 0.00 0.00 0.00 67 1012.8
20260903021951 69 213 0.0 0.0 0.00 0.00 0.00 66 1012.8
20260903021503 69 170 0.0 2.0 0.00 0.00 0.00 66 1012.8
20260903020920 70 165 0.0 3.0 0.00 0.00 0.00 65 1012.7
20260903020008 70 179 1.0 4.0 0.00 0.00 0.00 65 1012.9
20260903015934 70 259 0.0 3.0 0.00 0.00 0.00 65 1012.9
20260903014928 71 193 0.0 2.0 0.00 0.00 0.00 63 1012.8
20260903014624 70 247 1.0 3.0 0.00 0.00 0.00 62 1012.9
20260903013907 71 242 1.0 4.0 0.00 0.00 0.00 62 1012.9
20260903013004 71 242 2.0 5.0 0.00 0.00 0.00 61 1013.0
20260903012841 72 266 1.0 4.0 0.00 0.00 0.00 61 1013.0
20260903011823 73 193 1.0 4.0 0.00 0.00 0.00 60 1012.8
20260903011621 72 245 1.0 5.0 0.00 0.00 0.00 59 1012.9
20260903010828 73 181 0.0 5.0 0.00 0.00 0.00 58 1012.9
20260903010112 73 155 0.0 6.0 0.00 0.00 0.00 56 1013.0
20260903004643 73 207 1.0 4.0 0.00 0.00 0.00 57 1012.9
20260903004506 73 250 1.0 5.0 0.00 0.00 0.00 57 1013.0
20260903003624 74 204 1.0 5.0 0.00 0.00 0.00 57 1012.9
20260903003127 73 221 2.0 6.0 0.00 0.00 0.00 57 1013.0
20260903002550 74 205 2.0 6.0 0.00 0.00 0.00 58 1012.9
20260903001528 74 229 2.0 6.0 0.00 0.00 0.00 57 1013.0
20260903001504 74 262 3.0 7.0 0.00 0.00 0.00 57 1013.0
20260903000507 75 214 3.0 6.0 0.00 0.00 0.00 58 1013.1
20260903000003 75 235 3.0 7.0 0.00 0.00 0.00 57 1013.0
20260902235531 76 208 2.0 7.0 0.00 0.00 0.00 57 1013.1
20260902234610 75 203 4.0 9.0 0.00 0.00 0.00 56 1013.1
20260902234531 76 209 4.0 9.0 0.00 0.00 0.00 56 1013.1
20260902233521 76 234 3.0 9.0 0.00 0.00 0.00 54 1013.1
20260902233002 76 238 3.0 8.0 0.00 0.00 0.00 54 1013.1
20260902232522 77 192 3.0 7.0 0.00 0.00 0.00 52 1013.1
20260902231603 78 203 4.0 8.0 0.00 0.00 0.00 50 1013.2
20260902231528 78 211 3.0 10.0 0.00 0.00 0.00 49 1013.2
20260902230105 78 167 4.0 9.0 0.00 0.00 0.00 47 1013.3
20260902225311 78 233 4.0 10.0 0.00 0.00 0.00 46 1013.3
20260902224501 78 180 3.0 9.0 0.00 0.00 0.00 46 1013.4
20260902224257 78 244 4.0 10.0 0.00 0.00 0.00 47 1013.4
20260902223240 79 211 4.0 10.0 0.00 0.00 0.00 49 1013.4
20260902223102 78 288 6.0 11.0 0.00 0.00 0.00 49 1013.5
20260902222252 79 164 4.0 10.0 0.00 0.00 0.00 52 1013.6
20260902221502 79 214 5.0 11.0 0.00 0.00 0.00 50 1013.7
20260902221251 79 205 4.0 11.0 0.00 0.00 0.00 50 1013.7
20260902220237 80 292 3.0 11.0 0.00 0.00 0.00 52 1013.7
20260902220003 79 148 2.0 12.0 0.00 0.00 0.00 52 1013.8
20260902215218 80 285 3.0 8.0 0.00 0.00 0.00 52 1013.8
20260902214603 80 210 4.0 9.0 0.00 0.00 0.00 52 1014.0
20260902214230 80 245 3.0 10.0 0.00 0.00 0.00 53 1013.9
20260902213158 80 256 3.0 10.0 0.00 0.00 0.00 53 1014.0
20260902213002 79 188 3.0 11.0 0.00 0.00 0.00 54 1014.1
20260902212207 80 156 3.0 7.0 0.00 0.00 0.00 53 1014.1
20260902211603 80 198 3.0 9.0 0.00 0.00 0.00 53 1014.2
20260902211206 80 239 3.0 10.0 0.00 0.00 0.00 54 1014.1
20260902210203 80 184 2.0 10.0 0.00 0.00 0.00 53 1014.3
20260902210108 80 182 5.0 11.0 0.00 0.00 0.00 53 1014.3
20260902205215 79 243 3.0 8.0 0.00 0.00 0.00 54 1014.3
20260902204505 79 200 4.0 9.0 0.00 0.00 0.00 55 1014.4
20260902203117 78 240 3.0 10.0 0.00 0.00 0.00 57 1014.4
20260902203115 78 241 3.0 8.0 0.00 0.00 0.00 57 1014.5
20260902202114 78 174 4.0 11.0 0.00 0.00 0.00 57 1014.5
20260902201503 78 234 5.0 12.0 0.00 0.00 0.00 57 1014.5
20260902201040 79 264 4.0 11.0 0.00 0.00 0.00 57 1014.5
20260902200010 79 236 4.0 8.0 0.00 0.00 0.00 54 1014.6
20260902200003 78 246 3.0 9.0 0.00 0.00 0.00 54 1014.6
20260902194937 80 176 3.0 8.0 0.00 0.00 0.00 48 1014.6
20260902194604 80 148 4.0 9.0 0.00 0.00 0.00 50 1014.7
20260902193944 81 57 2.0 7.0 0.00 0.00 0.00 48 1014.7
20260902193003 80 202 3.0 8.0 0.00 0.00 0.00 48 1015.0
20260902191810 79 174 2.0 7.0 0.00 0.00 0.00 50 1015.1
20260902191605 78 212 3.0 8.0 0.00 0.00 0.00 49 1015.1
20260902190759 78 177 2.0 8.0 0.00 0.00 0.00 54 1015.2
20260902190104 78 207 5.0 9.0 0.00 0.00 0.00 52 1015.4
20260902185759 78 210 1.0 11.0 0.00 0.00 0.00 53 1015.3
20260902184753 77 156 3.0 11.0 0.00 0.00 0.00 53 1015.5
20260902184503 76 219 4.0 12.0 0.00 0.00 0.00 56 1015.5
20260902183733 76 146 1.0 7.0 0.00 0.00 0.00 57 1015.5
20260902183103 76 231 0.0 8.0 0.00 0.00 0.00 57 1015.5
20260902182749 76 186 2.0 7.0 0.00 0.00 0.00 58 1015.5
20260902181807 76 177 2.0 8.0 0.00 0.00 0.00 57 1015.4
20260902181503 75 233 2.0 7.0 0.00 0.00 0.00 60 1015.5
20260902180005 74 198 3.0 9.0 0.00 0.00 0.00 59 1015.4
20260902175646 74 275 1.0 6.0 0.00 0.00 0.00 61 1015.4
20260902174708 73 146 2.0 7.0 0.00 0.00 0.00 62 1015.4
20260902174605 73 179 2.0 8.0 0.00 0.00 0.00 62 1015.4
20260902173718 73 222 2.0 7.0 0.00 0.00 0.00 63 1015.5
20260902173007 72 134 3.0 8.0 0.00 0.00 0.00 63 1015.6
20260902172729 73 295 1.0 7.0 0.00 0.00 0.00 63 1015.7
20260902171701 72 178 2.0 7.0 0.00 0.00 0.00 65 1015.6
20260902171604 72 161 3.0 8.0 0.00 0.00 0.00 64 1015.6
20260902170715 72 152 1.0 6.0 0.00 0.00 0.00 66 1015.4
20260902170104 72 152 1.0 5.0 0.00 0.00 0.00 66 1015.4
20260902165657 71 246 0.0 5.0 0.00 0.00 0.00 68 1015.4
20260902164711 71 156 1.0 5.0 0.00 0.00 0.00 70 1015.3
20260902164609 70 154 0.0 6.0 0.00 0.00 0.00 70 1015.2
20260902163638 70 184 0.0 3.0 0.00 0.00 0.00 71 1015.3
20260902163002 70 11 0.0 4.0 0.00 0.00 0.00 73 1015.4
20260902162635 69 214 0.0 3.0 0.00 0.00 0.00 73 1015.4
20260902161653 68 133 0.0 0.0 0.00 0.00 0.00 76 1015.4
20260902161605 68 203 1.0 4.0 0.00 0.00 0.00 75 1015.5
20260902160121 67 205 1.0 4.0 0.00 0.00 0.00 77 1015.4
20260902154506 65 212 0.0 2.0 0.00 0.00 0.00 80 1015.3
20260902154423 65 248 0.0 1.0 0.00 0.00 0.00 81 1015.3
20260902153103 63 208 0.0 2.0 0.00 0.00 0.00 85 1015.2
20260902152310 63 224 0.0 0.0 0.00 0.00 0.00 86 1015.3
20260902151503 61 233 0.0 1.0 0.00 0.00 0.00 86 1015.2
20260902151322 62 233 0.0 0.0 0.00 0.00 0.00 86 1015.2
20260902150306 60 221 0.0 0.0 0.00 0.00 0.00 88 1015.2
20260902150003 59 221 0.0 1.0 0.00 0.01 0.00 89 1015.3
20260902145232 59 221 0.0 0.0 0.00 0.00 0.00 91 1015.2
20260902144602 59 221 0.0 1.0 0.00 0.01 0.00 92 1015.2
20260902144230 59 221 0.0 0.0 0.00 0.00 0.00 92 1015.1
20260902143226 59 221 0.0 0.0 0.00 0.01 0.00 93 1015.0
20260902143003 58 221 0.0 1.0 0.00 0.01 0.00 93 1015.0
20260902142230 59 340 0.0 0.0 0.00 0.01 0.00 94 1015.0
20260902141602 58 278 0.0 1.0 0.00 0.01 0.00 95 1015.0
20260902141235 58 354 0.0 0.0 0.00 0.01 0.00 93 1014.8
20260902140216 58 353 0.0 0.0 0.00 0.01 0.00 93 1014.6
20260902135239 58 353 0.0 0.0 0.00 0.01 0.00 93 1014.4
20260902134503 58 352 0.0 1.0 0.00 0.01 0.00 93 1014.5
20260902134217 58 354 0.0 0.0 0.00 0.01 0.00 93 1014.4
20260902133233 58 352 0.0 0.0 0.00 0.01 0.00 92 1014.5
20260902133107 58 352 0.0 1.0 0.00 0.01 0.00 92 1014.5
20260902132236 58 352 0.0 0.0 0.00 0.01 0.00 93 1014.4
20260902131503 58 13 0.0 1.0 0.00 0.01 0.00 93 1014.4
20260902131207 59 13 0.0 0.0 0.00 0.01 0.00 93 1014.4
20260902130209 58 18 0.0 0.0 0.00 0.01 0.00 93 1014.4
20260902130003 58 18 0.0 1.0 0.00 0.01 0.00 92 1014.5
20260902125203 59 17 0.0 0.0 0.00 0.01 0.00 94 1014.5
20260902124604 58 18 0.0 1.0 0.00 0.01 0.00 93 1014.6
20260902124138 59 18 0.0 0.0 0.00 0.01 0.00 93 1014.5
20260902123146 58 18 0.0 0.0 0.00 0.01 0.00 92 1014.5
20260902123002 58 18 0.0 1.0 0.00 0.01 0.00 92 1014.6
20260902121603 58 17 0.0 1.0 0.00 0.01 0.00 92 1014.7
20260902115910 59 17 0.0 0.0 0.00 0.01 0.00 92 1014.7
20260902114906 59 23 0.0 0.0 0.00 0.01 0.00 92 1014.6
20260902114505 59 23 1.0 1.0 0.00 0.01 0.00 92 1014.7
20260902113107 59 23 0.0 1.0 0.00 0.01 0.00 92 1014.7
20260902112726 60 23 0.0 0.0 0.00 0.01 0.00 92 1014.6
20260902111713 59 33 0.0 0.0 0.00 0.01 0.00 92 1014.6
20260902111504 59 34 0.0 1.0 0.00 0.01 0.00 91 1014.7
20260902110008 59 34 1.0 1.0 0.00 0.01 0.00 91 1014.8
20260902104623 60 34 0.0 1.0 0.00 0.01 0.00 90 1014.8
20260902103259 61 33 0.0 0.0 0.00 0.01 0.00 90 1014.6
20260902103003 60 34 0.0 1.0 0.00 0.01 0.00 89 1014.7
20260902102323 61 34 0.0 3.0 0.00 0.01 0.00 89 1014.7
20260902101606 61 33 1.0 4.0 0.00 0.01 0.00 89 1014.8
20260902100226 62 41 1.0 2.0 0.00 0.01 0.00 89 1014.7
20260902100130 61 39 1.0 3.0 0.00 0.01 0.00 89 1014.8
20260902095238 62 35 1.0 2.0 0.00 0.01 0.00 89 1014.7
20260902094502 61 34 1.0 2.0 0.00 0.01 0.00 89 1014.8
20260902094235 61 34 0.0 2.0 0.00 0.01 0.00 89 1014.8
20260902093252 61 32 0.0 2.0 0.00 0.01 0.00 89 1014.7
20260902093125 61 32 1.0 3.0 0.00 0.01 0.00 89 1014.8
20260902092231 61 42 0.0 0.0 0.00 0.01 0.00 88 1014.7
20260902091503 61 42 1.0 3.0 0.00 0.01 0.00 88 1014.8
20260902091227 62 41 0.0 2.0 0.00 0.01 0.00 88 1014.7
20260902090158 62 51 1.0 2.0 0.00 0.01 0.00 88 1014.6
20260902090005 61 39 1.0 3.0 0.00 0.01 0.00 88 1014.6
20260902085133 62 46 0.0 2.0 0.00 0.01 0.00 88 1014.7
20260902084607 62 46 1.0 3.0 0.00 0.01 0.00 88 1014.8
20260902084059 62 30 1.0 2.0 0.00 0.01 0.00 89 1014.8
20260902083108 62 41 0.0 2.0 0.00 0.01 0.00 89 1014.8
20260902083005 61 38 0.0 3.0 0.00 0.01 0.00 90 1014.9
20260902082101 62 41 1.0 2.0 0.00 0.01 0.00 90 1014.8
20260902081619 61 42 1.0 3.0 0.00 0.01 0.00 89 1014.9
20260902081043 62 43 0.0 2.0 0.00 0.01 0.00 90 1014.9
20260902080109 61 44 0.0 3.0 0.00 0.01 0.00 89 1014.8
20260902073801 61 42 0.0 2.0 0.00 0.01 0.00 89 1014.7
20260902073103 61 43 0.0 3.0 0.00 0.01 0.00 88 1014.8
20260902072809 61 42 0.0 2.0 0.00 0.01 0.00 89 1014.7
20260902071824 61 34 0.0 1.0 0.00 0.01 0.00 88 1014.7
20260902071503 60 34 0.0 1.0 0.00 0.01 0.00 87 1014.7
20260902070835 61 34 0.0 0.0 0.00 0.01 0.00 86 1014.4
20260902070002 61 34 0.0 2.0 0.00 0.01 0.01 85 1014.5
20260902065820 61 34 0.0 1.0 0.00 0.01 0.01 85 1014.4
20260902064756 61 33 0.0 1.0 0.00 0.01 0.01 85 1014.3
20260902064611 61 32 1.0 2.0 0.00 0.01 0.01 85 1014.4
20260902063729 61 32 0.0 0.0 0.00 0.01 0.01 82 1014.3
20260902063002 61 32 0.0 2.0 0.00 0.01 0.01 83 1014.4
20260902062727 61 32 1.0 1.0 0.00 0.01 0.01 83 1014.3
20260902061706 61 38 0.0 1.0 0.00 0.01 0.01 82 1014.3
20260902061602 61 38 0.0 2.0 0.00 0.01 0.01 82 1014.3
20260902060642 61 6 0.0 1.0 0.00 0.01 0.01 82 1014.2
20260902060135 60 6 1.0 2.0 0.00 0.01 0.01 82 1014.2
20260902054502 60 4 1.0 2.0 0.00 0.01 0.01 83 1014.2
20260902053356 61 359 0.0 0.0 0.00 0.01 0.01 82 1014.0
20260902053105 60 359 1.0 1.0 0.00 0.01 0.01 82 1014.1
20260902052348 61 355 0.0 0.0 0.00 0.01 0.01 80 1014.0
20260902051502 61 354 0.0 1.0 0.00 0.01 0.01 85 1014.1
20260902050233 62 48 0.0 0.0 0.00 0.01 0.01 82 1014.0
20260902050007 61 48 0.0 1.0 0.00 0.01 0.01 83 1014.1
20260902045213 62 48 0.0 0.0 0.00 0.01 0.01 82 1014.1
20260902044602 61 48 0.0 1.0 0.00 0.01 0.01 82 1014.1
20260902044144 62 49 0.0 0.0 0.00 0.01 0.01 82 1014.0
20260902043110 61 51 0.0 1.0 0.00 0.01 0.01 82 1013.9
20260902043003 60 51 1.0 2.0 0.00 0.01 0.01 80 1013.9
20260902041602 61 217 0.0 1.0 0.00 0.01 0.01 80 1013.6
20260902040935 62 217 0.0 0.0 0.00 0.01 0.01 82 1013.4
20260902040103 61 217 0.0 1.0 0.00 0.01 0.01 78 1013.3
20260902035909 62 217 0.0 0.0 0.00 0.01 0.01 79 1013.3
20260902034503 63 217 0.0 1.0 0.00 0.01 0.01 80 1013.2
20260902033733 63 217 0.0 0.0 0.00 0.01 0.01 80 1013.0
20260902033117 63 217 0.0 1.0 0.00 0.01 0.01 81 1013.1
20260902032733 64 217 0.0 0.0 0.00 0.01 0.01 80 1013.1
20260902031503 64 217 0.0 1.0 0.00 0.01 0.01 79 1013.0